| time (UTC) | temp C | wind direction | speed KPH | gust KPH | rain 1hr cm | rain 24hr cm | rain mn cm | humidity % | barometer mb |
| 20260506091543 | 23 | 272 | 0.0 | 1.6 | 0.00 | 0.00 | 0.00 | 90 | 1007.5 |
| 20260506090047 | 23 | 0 | 0.0 | 0.0 | 0.00 | 0.00 | 0.00 | 90 | 1007.5 |
| 20260506084546 | 23 | 330 | 0.0 | 0.0 | 0.00 | 0.00 | 0.00 | 90 | 1007.6 |
| 20260506083051 | 23 | 0 | 0.0 | 0.0 | 0.00 | 0.00 | 0.00 | 90 | 1007.7 |
| 20260506081548 | 23 | 0 | 0.0 | 1.6 | 0.00 | 0.00 | 0.00 | 90 | 1007.6 |
| 20260506073053 | 24 | 0 | 0.0 | 6.4 | 0.00 | 0.00 | 0.00 | 90 | 1008.0 |
| 20260506071551 | 23 | 17 | 0.0 | 6.4 | 0.00 | 0.00 | 0.00 | 90 | 1008.2 |
| 20260506070105 | 23 | 289 | 0.0 | 3.2 | 0.00 | 0.00 | 0.00 | 91 | 1008.2 |
| 20260506061547 | 24 | 0 | 0.0 | 1.6 | 0.00 | 0.00 | 0.00 | 90 | 1008.2 |
| 20260506044554 | 25 | 269 | 0.0 | 3.2 | 0.00 | 0.00 | 0.00 | 88 | 1008.3 |
| 20260506043045 | 25 | 264 | 0.0 | 1.6 | 0.00 | 0.00 | 0.00 | 87 | 1008.3 |
| 20260506041553 | 25 | 0 | 0.0 | 3.2 | 0.00 | 0.00 | 0.00 | 87 | 1008.0 |
| 20260506040043 | 25 | 0 | 0.0 | 1.6 | 0.00 | 0.00 | 0.00 | 87 | 1007.9 |
| 20260506034547 | 25 | 263 | 0.0 | 1.6 | 0.00 | 0.00 | 0.00 | 87 | 1007.8 |
| 20260506033045 | 25 | 0 | 0.0 | 0.0 | 0.00 | 0.00 | 0.00 | 86 | 1007.7 |
| 20260506031555 | 25 | 0 | 0.0 | 1.6 | 0.00 | 0.00 | 0.00 | 85 | 1007.5 |
| 20260506030055 | 25 | 0 | 0.0 | 1.6 | 0.00 | 0.00 | 0.00 | 85 | 1007.1 |
| 20260506024539 | 26 | 0 | 0.0 | 1.6 | 0.00 | 0.00 | 0.00 | 84 | 1006.8 |
| 20260506023047 | 26 | 0 | 0.0 | 1.6 | 0.00 | 0.00 | 0.00 | 83 | 1006.5 |
| 20260506021542 | 26 | 0 | 0.0 | 1.6 | 0.00 | 0.00 | 0.00 | 82 | 1006.4 |
| 20260506020038 | 26 | 0 | 0.0 | 0.0 | 0.00 | 0.00 | 0.00 | 81 | 1006.1 |
| 20260506014546 | 26 | 0 | 0.0 | 0.0 | 0.00 | 0.00 | 0.00 | 80 | 1005.9 |
| 20260506013049 | 27 | 0 | 0.0 | 0.0 | 0.00 | 0.00 | 0.00 | 80 | 1005.8 |
| 20260506011555 | 27 | 0 | 0.0 | 0.0 | 0.00 | 0.00 | 0.00 | 78 | 1005.9 |
| 20260506010041 | 27 | 0 | 0.0 | 0.0 | 0.00 | 0.00 | 0.00 | 78 | 1005.9 |
| 20260506004606 | 27 | 0 | 0.0 | 0.0 | 0.00 | 0.00 | 0.00 | 77 | 1005.6 |
| 20260506003046 | 27 | 0 | 0.0 | 0.0 | 0.00 | 0.00 | 0.00 | 76 | 1005.7 |
| 20260506001544 | 28 | 0 | 0.0 | 1.6 | 0.00 | 0.00 | 0.00 | 76 | 1005.5 |
| 20260506000045 | 28 | 0 | 0.0 | 1.6 | 0.00 | 0.00 | 0.00 | 75 | 1005.5 |
| 20260505234610 | 28 | 0 | 0.0 | 1.6 | 0.00 | 0.00 | 0.00 | 75 | 1005.4 |
| 20260505233046 | 28 | 34 | 0.0 | 8.0 | 0.00 | 0.00 | 0.00 | 74 | 1005.6 |
| 20260505231546 | 28 | 0 | 0.0 | 3.2 | 0.00 | 0.00 | 0.00 | 75 | 1005.4 |
| 20260505230047 | 28 | 252 | 0.0 | 6.4 | 0.00 | 0.00 | 0.00 | 73 | 1005.3 |
| 20260505224539 | 28 | 0 | 0.0 | 3.2 | 0.00 | 0.00 | 0.00 | 73 | 1005.2 |
| 20260505223059 | 28 | 0 | 0.0 | 3.2 | 0.00 | 0.00 | 0.00 | 73 | 1005.4 |
| 20260505221559 | 29 | 319 | 0.0 | 3.2 | 0.00 | 0.00 | 0.00 | 72 | 1005.3 |
| 20260505220050 | 29 | 13 | 0.0 | 4.8 | 0.00 | 0.00 | 0.00 | 71 | 1005.6 |
| 20260505214547 | 29 | 235 | 1.6 | 4.8 | 0.00 | 0.00 | 0.00 | 71 | 1005.8 |
| 20260505213050 | 28 | 272 | 0.0 | 4.8 | 0.00 | 0.00 | 0.00 | 73 | 1005.9 |
| 20260505211608 | 28 | 0 | 0.0 | 3.2 | 0.00 | 0.00 | 0.00 | 73 | 1005.9 |
| 20260505210044 | 29 | 250 | 0.0 | 4.8 | 0.00 | 0.00 | 0.00 | 73 | 1006.2 |
| 20260505204544 | 28 | 248 | 0.0 | 6.4 | 0.00 | 0.00 | 0.00 | 74 | 1006.3 |
| 20260505203052 | 28 | 0 | 0.0 | 3.2 | 0.00 | 0.00 | 0.00 | 76 | 1006.8 |
| 20260505201601 | 27 | 0 | 0.0 | 4.8 | 0.00 | 0.00 | 0.00 | 76 | 1007.0 |
| 20260505194600 | 27 | 317 | 0.0 | 6.4 | 0.00 | 0.00 | 0.00 | 77 | 1007.3 |
| 20260505193047 | 27 | 259 | 0.0 | 6.4 | 0.00 | 0.00 | 0.00 | 77 | 1007.3 |
| 20260505191547 | 26 | 267 | 0.0 | 6.4 | 0.00 | 0.00 | 0.00 | 78 | 1007.5 |
| 20260505190048 | 26 | 278 | 1.6 | 8.0 | 0.00 | 0.00 | 0.00 | 79 | 1007.7 |
| 20260505184549 | 26 | 236 | 0.0 | 3.2 | 0.00 | 0.00 | 0.00 | 80 | 1008.0 |
| 20260505183051 | 26 | 0 | 0.0 | 4.8 | 0.00 | 0.00 | 0.00 | 80 | 1008.1 |
| 20260505181547 | 25 | 287 | 0.0 | 8.0 | 0.00 | 0.00 | 0.00 | 81 | 1008.3 |
| 20260505180046 | 25 | 8 | 0.0 | 8.0 | 0.00 | 0.00 | 0.00 | 82 | 1008.4 |
| 20260505174550 | 25 | 23 | 0.0 | 3.2 | 0.00 | 0.00 | 0.00 | 83 | 1008.6 |
| 20260505173050 | 24 | 6 | 1.6 | 8.0 | 0.00 | 0.00 | 0.00 | 83 | 1008.9 |
| 20260505171546 | 24 | 0 | 0.0 | 8.0 | 0.00 | 0.00 | 0.00 | 84 | 1008.9 |
| 20260505170052 | 24 | 354 | 0.0 | 6.4 | 0.00 | 0.00 | 0.00 | 83 | 1008.9 |
| 20260505164551 | 23 | 0 | 0.0 | 6.4 | 0.00 | 0.00 | 0.00 | 85 | 1008.9 |
| 20260505163049 | 23 | 0 | 0.0 | 8.0 | 0.00 | 0.00 | 0.00 | 86 | 1008.8 |
| 20260505161548 | 23 | 0 | 0.0 | 4.8 | 0.00 | 0.00 | 0.00 | 87 | 1009.0 |
| 20260505153048 | 22 | 331 | 1.6 | 6.4 | 0.00 | 0.00 | 0.00 | 87 | 1009.0 |
| 20260505151548 | 22 | 0 | 0.0 | 4.8 | 0.00 | 0.00 | 0.00 | 88 | 1008.8 |
| 20260505124607 | 21 | 0 | 0.0 | 6.4 | 0.00 | 0.00 | 0.00 | 90 | 1007.7 |
| 20260505123105 | 21 | 0 | 0.0 | 8.0 | 0.00 | 0.00 | 0.00 | 90 | 1007.5 |
| 20260505121549 | 21 | 271 | 0.0 | 8.0 | 0.00 | 0.00 | 0.00 | 90 | 1007.3 |
| 20260505120051 | 21 | 0 | 0.0 | 3.2 | 0.00 | 0.00 | 0.00 | 90 | 1007.2 |
| 20260505114547 | 21 | 316 | 0.0 | 3.2 | 0.00 | 0.00 | 0.00 | 89 | 1007.2 |
| 20260505113041 | 21 | 297 | 1.6 | 9.7 | 0.00 | 0.00 | 0.00 | 88 | 1007.2 |
| 20260505111549 | 21 | 282 | 0.0 | 6.4 | 0.00 | 0.00 | 0.00 | 88 | 1007.1 |
| 20260505101544 | 21 | 252 | 0.0 | 11.3 | 0.00 | 0.00 | 0.00 | 88 | 1007.4 |
| 20260505100050 | 21 | 0 | 1.6 | 8.0 | 0.00 | 0.00 | 0.00 | 88 | 1007.5 |
| 20260505094549 | 21 | 0 | 0.0 | 3.2 | 0.00 | 0.00 | 0.00 | 87 | 1007.5 |
| 20260505093047 | 21 | 0 | 0.0 | 1.6 | 0.00 | 0.00 | 0.00 | 87 | 1007.6 |